owner,sensor,date,latitude,longitude,vertical_datum,direction_of_sea_water_velocity,sea_water_speed,upward_sea_water_velocity,qcFlag 
TABS,ioos:station:wmo:42043:1,1996-11-01T00:00:00Z,28.9818,-94.9186,2.0,332.0120199,10.80354109,-99999.0,'11111222,11111222,99999999' 
TABS,ioos:station:wmo:42043:1,1996-11-01T00:30:00Z,28.9818,-94.9186,2.0,346.6118687,12.86976301,-99999.0,'11111222,11111222,99999999' 
TABS,ioos:station:wmo:42043:1,1996-11-01T01:00:00Z,28.9818,-94.9186,2.0,348.8558702,11.5375604,-99999.0,'11111222,11111222,99999999' 
TABS,ioos:station:wmo:42043:1,1996-11-01T01:30:00Z,28.9818,-94.9186,2.0,349.5395728,11.51132052,-99999.0,'11111222,11111222,99999999' 
TABS,ioos:station:wmo:42043:1,1996-11-01T02:00:00Z,28.9818,-94.9186,2.0,1.26760648,13.56331818,-99999.0,'11111222,11111222,99999999' 
TABS,ioos:station:wmo:42043:1,1996-11-01T02:30:00Z,28.9818,-94.9186,2.0,355.6759736,11.80360115,-99999.0,'11111222,11111222,99999999' 
TABS,ioos:station:wmo:42043:1,1996-11-01T03:00:00Z,28.9818,-94.9186,2.0,350.1226664,10.43467776,-99999.0,'11111222,11111222,99999999' 
TABS,ioos:station:wmo:42043:1,1996-11-01T03:30:00Z,28.9818,-94.9186,2.0,354.8858279,11.66644762,-99999.0,'11111222,11111222,99999999' 
TABS,ioos:station:wmo:42043:1,1996-11-01T04:00:00Z,28.9818,-94.9186,2.0,358.610936,12.3736373,-99999.0,'11111222,11111222,99999999' 
TABS,ioos:station:wmo:42043:1,1996-11-01T04:30:00Z,28.9818,-94.9186,2.0,358.6427478,12.663554,-99999.0,'11111222,11111222,99999999' 
TABS,ioos:station:wmo:42043:1,1996-11-01T05:00:00Z,28.9818,-94.9186,2.0,358.70415,13.26339323,-99999.0,'11111222,11111222,99999999' 
TABS,ioos:station:wmo:42043:1,1996-11-01T05:30:00Z,28.9818,-94.9186,2.0,2.940895051,14.61925101,-99999.0,'11111222,11111222,99999999' 
TABS,ioos:station:wmo:42043:1,1996-11-01T06:00:00Z,28.9818,-94.9186,2.0,18.27451212,18.0503518,-99999.0,'11111222,11111222,99999999' 
TABS,ioos:station:wmo:42043:1,1996-11-01T06:30:00Z,28.9818,-94.9186,2.0,16.61584472,17.73034123,-99999.0,'11111222,11111222,99999999' 
TABS,ioos:station:wmo:42043:1,1996-11-01T07:00:00Z,28.9818,-94.9186,2.0,11.51053769,17.94081381,-99999.0,'11111222,11111222,99999999' 
TABS,ioos:station:wmo:42043:1,1996-11-01T07:30:00Z,28.9818,-94.9186,2.0,18.9038689,17.00729843,-99999.0,'11111222,11111222,99999999' 
TABS,ioos:station:wmo:42043:1,1996-11-01T08:00:00Z,28.9818,-94.9186,2.0,20.54810528,16.55312961,-99999.0,'11111222,11111222,99999999' 
TABS,ioos:station:wmo:42043:1,1996-11-01T08:30:00Z,28.9818,-94.9186,2.0,26.04464965,15.25955766,-99999.0,'11111222,11111222,99999999' 
TABS,ioos:station:wmo:42043:1,1996-11-01T09:00:00Z,28.9818,-94.9186,2.0,25.09088287,15.46976729,-99999.0,'11111222,11111222,99999999' 
TABS,ioos:station:wmo:42043:1,1996-11-01T09:30:00Z,28.9818,-94.9186,2.0,29.20993488,14.34400223,-99999.0,'11111222,11111222,99999999' 
TABS,ioos:station:wmo:42043:1,1996-11-01T10:00:00Z,28.9818,-94.9186,2.0,65.23616725,10.67131669,-99999.0,'11111222,11111222,99999999' 
TABS,ioos:station:wmo:42043:1,1996-11-01T10:30:00Z,28.9818,-94.9186,2.0,21.12354564,9.101565799,-99999.0,'11133222,11111222,99999999' 
TABS,ioos:station:wmo:42043:1,1996-11-01T11:00:00Z,28.9818,-94.9186,2.0,23.06167606,9.87952428,-99999.0,'11133222,11111222,99999999' 
TABS,ioos:station:wmo:42043:1,1996-11-01T11:30:00Z,28.9818,-94.9186,2.0,138.8851303,26.50671236,-99999.0,'11111222,11111222,99999999' 
TABS,ioos:station:wmo:42043:1,1996-11-01T12:00:00Z,28.9818,-94.9186,2.0,46.13228286,5.36798845,-99999.0,'11133222,11111222,99999999' 
TABS,ioos:station:wmo:42043:1,1996-11-01T12:30:00Z,28.9818,-94.9186,2.0,140.9957243,8.055588123,-99999.0,'11133222,11111222,99999999' 
TABS,ioos:station:wmo:42043:1,1996-11-01T13:00:00Z,28.9818,-94.9186,2.0,167.0942672,31.34170544,-99999.0,'11111222,11111222,99999999' 
TABS,ioos:station:wmo:42043:1,1996-11-01T13:30:00Z,28.9818,-94.9186,2.0,171.712947,31.0138195,-99999.0,'11111222,11111222,99999999' 
TABS,ioos:station:wmo:42043:1,1996-11-01T14:00:00Z,28.9818,-94.9186,2.0,182.2582881,26.39050018,-99999.0,'11111222,11111222,99999999' 
TABS,ioos:station:wmo:42043:1,1996-11-01T14:30:00Z,28.9818,-94.9186,2.0,187.8384764,29.47542027,-99999.0,'11111222,11111222,99999999' 
TABS,ioos:station:wmo:42043:1,1996-11-01T15:00:00Z,28.9818,-94.9186,2.0,174.2605122,29.79937751,-99999.0,'11111222,11111222,99999999' 
TABS,ioos:station:wmo:42043:1,1996-11-01T15:30:00Z,28.9818,-94.9186,2.0,178.8463418,29.80603966,-99999.0,'11111222,11111222,99999999' 
TABS,ioos:station:wmo:42043:1,1996-11-01T16:00:00Z,28.9818,-94.9186,2.0,180.5912583,29.06154848,-99999.0,'11111222,11111222,99999999' 
TABS,ioos:station:wmo:42043:1,1996-11-01T16:30:00Z,28.9818,-94.9186,2.0,184.2580185,30.03290529,-99999.0,'11111222,11111222,99999999' 
TABS,ioos:station:wmo:42043:1,1996-11-01T17:00:00Z,28.9818,-94.9186,2.0,191.4217031,30.09603961,-99999.0,'11111222,11111222,99999999' 
TABS,ioos:station:wmo:42043:1,1996-11-01T17:30:00Z,28.9818,-94.9186,2.0,201.3965641,26.56066641,-99999.0,'11111222,11111222,99999999' 
TABS,ioos:station:wmo:42043:1,1996-11-01T18:00:00Z,28.9818,-94.9186,2.0,202.4610005,26.12163854,-99999.0,'11111222,11111222,99999999' 
TABS,ioos:station:wmo:42043:1,1996-11-01T18:30:00Z,28.9818,-94.9186,2.0,210.4383181,22.64047924,-99999.0,'11111222,11111222,99999999' 
TABS,ioos:station:wmo:42043:1,1996-11-01T19:00:00Z,28.9818,-94.9186,2.0,217.5009324,21.78132227,-99999.0,'11111222,11111222,99999999' 
TABS,ioos:station:wmo:42043:1,1996-11-01T19:30:00Z,28.9818,-94.9186,2.0,238.5672081,9.434452819,-99999.0,'11133222,11111222,99999999' 
TABS,ioos:station:wmo:42043:1,1996-11-01T20:00:00Z,28.9818,-94.9186,2.0,250.7487876,13.10264477,-99999.0,'11111222,11111222,99999999' 
TABS,ioos:station:wmo:42043:1,1996-11-01T20:30:00Z,28.9818,-94.9186,2.0,315.0003157,5.897270555,-99999.0,'11133222,11111222,99999999' 
TABS,ioos:station:wmo:42043:1,1996-11-01T21:00:00Z,28.9818,-94.9186,2.0,36.02230601,8.110887744,-99999.0,'11133222,11111222,99999999' 
TABS,ioos:station:wmo:42043:1,1996-11-01T21:30:00Z,28.9818,-94.9186,2.0,16.05742407,9.146857384,-99999.0,'11133222,11111222,99999999' 
TABS,ioos:station:wmo:42043:1,1996-11-01T22:00:00Z,28.9818,-94.9186,2.0,18.21365426,11.45385525,-99999.0,'11111222,11111222,99999999' 
TABS,ioos:station:wmo:42043:1,1996-11-01T22:30:00Z,28.9818,-94.9186,2.0,357.8912583,12.22828279,-99999.0,'11111222,11111222,99999999' 
TABS,ioos:station:wmo:42043:1,1996-11-01T23:00:00Z,28.9818,-94.9186,2.0,31.57391203,12.24226286,-99999.0,'11111222,11111222,99999999' 
TABS,ioos:station:wmo:42043:1,1996-11-01T23:30:00Z,28.9818,-94.9186,2.0,106.0607653,10.22926195,-99999.0,'11111222,11111222,99999999' 
TABS,ioos:station:wmo:42043:1,1996-11-02T00:00:00Z,28.9818,-94.9186,2.0,142.2613804,15.83181923,-99999.0,'11111222,11111222,99999999' 
TABS,ioos:station:wmo:42043:1,1996-11-02T00:30:00Z,28.9818,-94.9186,2.0,149.6103005,17.96880909,-99999.0,'11111222,11111222,99999999' 
TABS,ioos:station:wmo:42043:1,1996-11-02T01:00:00Z,28.9818,-94.9186,2.0,158.626176,22.88387423,-99999.0,'11111222,11111222,99999999' 
TABS,ioos:station:wmo:42043:1,1996-11-02T01:30:00Z,28.9818,-94.9186,2.0,164.0872072,28.81413021,-99999.0,'11111222,11111222,99999999' 
TABS,ioos:station:wmo:42043:1,1996-11-02T02:00:00Z,28.9818,-94.9186,2.0,170.3248468,31.89362319,-99999.0,'11111222,11111222,99999999' 
TABS,ioos:station:wmo:42043:1,1996-11-02T02:30:00Z,28.9818,-94.9186,2.0,171.3827611,36.77512339,-99999.0,'11111222,11111222,99999999' 
TABS,ioos:station:wmo:42043:1,1996-11-02T03:00:00Z,28.9818,-94.9186,2.0,167.9789089,37.93178087,-99999.0,'11111222,11111222,99999999' 
TABS,ioos:station:wmo:42043:1,1996-11-02T03:30:00Z,28.9818,-94.9186,2.0,172.5793997,40.41849577,-99999.0,'11111222,11111222,99999999' 
TABS,ioos:station:wmo:42043:1,1996-11-02T04:00:00Z,28.9818,-94.9186,2.0,174.7362957,40.55099012,-99999.0,'11111222,11111222,99999999' 
TABS,ioos:station:wmo:42043:1,1996-11-02T04:30:00Z,28.9818,-94.9186,2.0,177.6110741,42.94731889,-99999.0,'11111222,11111222,99999999' 
TABS,ioos:station:wmo:42043:1,1996-11-02T05:00:00Z,28.9818,-94.9186,2.0,177.313815,44.59899775,-99999.0,'11111222,11111222,99999999' 
TABS,ioos:station:wmo:42043:1,1996-11-02T05:30:00Z,28.9818,-94.9186,2.0,179.5772629,40.68110618,-99999.0,'11111222,11111222,99999999' 
TABS,ioos:station:wmo:42043:1,1996-11-02T06:00:00Z,28.9818,-94.9186,2.0,180.6199972,41.57243558,-99999.0,'11111222,11111222,99999999' 
TABS,ioos:station:wmo:42043:1,1996-11-02T06:30:00Z,28.9818,-94.9186,2.0,180.8036981,42.76420933,-99999.0,'11111222,11111222,99999999' 
TABS,ioos:station:wmo:42043:1,1996-11-02T07:00:00Z,28.9818,-94.9186,2.0,183.5736217,42.99360999,-99999.0,'11111222,11111222,99999999' 
TABS,ioos:station:wmo:42043:1,1996-11-02T07:30:00Z,28.9818,-94.9186,2.0,187.0503241,40.08309868,-99999.0,'11111222,11111222,99999999' 
TABS,ioos:station:wmo:42043:1,1996-11-02T08:00:00Z,28.9818,-94.9186,2.0,188.0638594,39.27839355,-99999.0,'11111222,11111222,99999999' 
TABS,ioos:station:wmo:42043:1,1996-11-02T08:30:00Z,28.9818,-94.9186,2.0,187.3386948,40.86476844,-99999.0,'11111222,11111222,99999999' 
TABS,ioos:station:wmo:42043:1,1996-11-02T09:00:00Z,28.9818,-94.9186,2.0,188.7127158,39.34404275,-99999.0,'11111222,11111222,99999999' 
TABS,ioos:station:wmo:42043:1,1996-11-02T09:30:00Z,28.9818,-94.9186,2.0,190.5769513,38.95184976,-99999.0,'11111222,11111222,99999999' 
TABS,ioos:station:wmo:42043:1,1996-11-02T10:00:00Z,28.9818,-94.9186,2.0,190.1621419,36.32995596,-99999.0,'11111222,11111222,99999999' 
TABS,ioos:station:wmo:42043:1,1996-11-02T10:30:00Z,28.9818,-94.9186,2.0,189.0310481,36.05700625,-99999.0,'11111222,11111222,99999999' 
TABS,ioos:station:wmo:42043:1,1996-11-02T11:00:00Z,28.9818,-94.9186,2.0,191.2321193,40.55685392,-99999.0,'11111222,11111222,99999999' 
TABS,ioos:station:wmo:42043:1,1996-11-02T11:30:00Z,28.9818,-94.9186,2.0,195.4516367,35.24390727,-99999.0,'11111222,11111222,99999999' 
TABS,ioos:station:wmo:42043:1,1996-11-02T12:00:00Z,28.9818,-94.9186,2.0,202.3472128,37.21503594,-99999.0,'11111222,11111222,99999999' 
TABS,ioos:station:wmo:42043:1,1996-11-02T12:30:00Z,28.9818,-94.9186,2.0,201.8908442,36.77143593,-99999.0,'11111222,11111222,99999999' 
TABS,ioos:station:wmo:42043:1,1996-11-02T13:00:00Z,28.9818,-94.9186,2.0,203.3988464,33.76696907,-99999.0,'11111222,11111222,99999999' 
TABS,ioos:station:wmo:42043:1,1996-11-02T13:30:00Z,28.9818,-94.9186,2.0,208.3838047,33.53108409,-99999.0,'11111222,11111222,99999999' 
TABS,ioos:station:wmo:42043:1,1996-11-02T14:00:00Z,28.9818,-94.9186,2.0,208.089481,35.12764865,-99999.0,'11111222,11111222,99999999' 
TABS,ioos:station:wmo:42043:1,1996-11-02T14:30:00Z,28.9818,-94.9186,2.0,209.8132288,34.17283424,-99999.0,'11111222,11111222,99999999' 
TABS,ioos:station:wmo:42043:1,1996-11-02T15:00:00Z,28.9818,-94.9186,2.0,211.8191457,35.60021629,-99999.0,'11111222,11111222,99999999' 
TABS,ioos:station:wmo:42043:1,1996-11-02T15:30:00Z,28.9818,-94.9186,2.0,211.0880352,35.49857603,-99999.0,'11111222,11111222,99999999' 
TABS,ioos:station:wmo:42043:1,1996-11-02T16:00:00Z,28.9818,-94.9186,2.0,217.8300387,33.76674399,-99999.0,'11111222,11111222,99999999' 
TABS,ioos:station:wmo:42043:1,1996-11-02T16:30:00Z,28.9818,-94.9186,2.0,215.2834593,31.21396002,-99999.0,'11111222,11111222,99999999' 
TABS,ioos:station:wmo:42043:1,1996-11-02T17:00:00Z,28.9818,-94.9186,2.0,221.9798214,30.06550515,-99999.0,'11111222,11111222,99999999' 
TABS,ioos:station:wmo:42043:1,1996-11-02T17:30:00Z,28.9818,-94.9186,2.0,220.7244891,29.68917143,-99999.0,'11111222,11111222,99999999' 
TABS,ioos:station:wmo:42043:1,1996-11-02T18:00:00Z,28.9818,-94.9186,2.0,222.6144121,25.31514369,-99999.0,'11111222,11111222,99999999' 
TABS,ioos:station:wmo:42043:1,1996-11-02T18:30:00Z,28.9818,-94.9186,2.0,226.5925217,26.45601633,-99999.0,'11111222,11111222,99999999' 
TABS,ioos:station:wmo:42043:1,1996-11-02T19:00:00Z,28.9818,-94.9186,2.0,230.0560248,23.90839601,-99999.0,'11111222,11111222,99999999' 
TABS,ioos:station:wmo:42043:1,1996-11-02T19:30:00Z,28.9818,-94.9186,2.0,218.3230849,19.94841848,-99999.0,'11111222,11111222,99999999' 
TABS,ioos:station:wmo:42043:1,1996-11-02T20:00:00Z,28.9818,-94.9186,2.0,222.299232,22.36233664,-99999.0,'11111222,11111222,99999999' 
TABS,ioos:station:wmo:42043:1,1996-11-02T20:30:00Z,28.9818,-94.9186,2.0,228.3054403,21.9497631,-99999.0,'11111222,11111222,99999999' 
TABS,ioos:station:wmo:42043:1,1996-11-02T21:00:00Z,28.9818,-94.9186,2.0,226.8594149,19.39201124,-99999.0,'11111222,11111222,99999999' 
TABS,ioos:station:wmo:42043:1,1996-11-02T21:30:00Z,28.9818,-94.9186,2.0,221.0507157,18.37891455,-99999.0,'11111222,11111222,99999999' 
TABS,ioos:station:wmo:42043:1,1996-11-02T22:00:00Z,28.9818,-94.9186,2.0,220.4639905,18.59858597,-99999.0,'11111222,11111222,99999999' 
TABS,ioos:station:wmo:42043:1,1996-11-02T22:30:00Z,28.9818,-94.9186,2.0,219.2380025,15.77747762,-99999.0,'11111222,11111222,99999999' 
TABS,ioos:station:wmo:42043:1,1996-11-02T23:00:00Z,28.9818,-94.9186,2.0,218.7577846,15.47840431,-99999.0,'11111222,11111222,99999999' 
TABS,ioos:station:wmo:42043:1,1996-11-02T23:30:00Z,28.9818,-94.9186,2.0,206.8072129,15.85386388,-99999.0,'11111222,11111222,99999999' 
TABS,ioos:station:wmo:42043:1,1996-11-03T00:00:00Z,28.9818,-94.9186,2.0,212.2187188,16.20536022,-99999.0,'11111222,11111222,99999999' 
TABS,ioos:station:wmo:42043:1,1996-11-03T00:30:00Z,28.9818,-94.9186,2.0,196.8092068,14.93828638,-99999.0,'11111222,11111222,99999999' 
TABS,ioos:station:wmo:42043:1,1996-11-03T01:00:00Z,28.9818,-94.9186,2.0,201.7864134,14.44152693,-99999.0,'11111222,11111222,99999999' 
TABS,ioos:station:wmo:42043:1,1996-11-03T01:30:00Z,28.9818,-94.9186,2.0,202.5329869,13.23001512,-99999.0,'11111222,11111222,99999999' 
TABS,ioos:station:wmo:42043:1,1996-11-03T02:00:00Z,28.9818,-94.9186,2.0,197.7771394,12.67524359,-99999.0,'11111222,11111222,99999999' 
TABS,ioos:station:wmo:42043:1,1996-11-03T02:30:00Z,28.9818,-94.9186,2.0,204.0094784,13.54167641,-99999.0,'11111222,11111222,99999999' 
TABS,ioos:station:wmo:42043:1,1996-11-03T03:00:00Z,28.9818,-94.9186,2.0,194.2942531,15.06646608,-99999.0,'11111222,11111222,99999999' 
TABS,ioos:station:wmo:42043:1,1996-11-03T03:30:00Z,28.9818,-94.9186,2.0,201.6995841,15.7135642,-99999.0,'11111222,11111222,99999999' 
TABS,ioos:station:wmo:42043:1,1996-11-03T04:00:00Z,28.9818,-94.9186,2.0,204.4469798,14.40117009,-99999.0,'11111222,11111222,99999999' 
TABS,ioos:station:wmo:42043:1,1996-11-03T04:30:00Z,28.9818,-94.9186,2.0,204.9879073,14.46389298,-99999.0,'11111222,11111222,99999999' 
TABS,ioos:station:wmo:42043:1,1996-11-03T05:00:00Z,28.9818,-94.9186,2.0,208.3339658,15.06486309,-99999.0,'11111222,11111222,99999999' 
TABS,ioos:station:wmo:42043:1,1996-11-03T05:30:00Z,28.9818,-94.9186,2.0,204.3964914,14.06599445,-99999.0,'11111222,11111222,99999999' 
TABS,ioos:station:wmo:42043:1,1996-11-03T06:00:00Z,28.9818,-94.9186,2.0,202.1137195,14.63672436,-99999.0,'11111222,11111222,99999999' 
TABS,ioos:station:wmo:42043:1,1996-11-03T06:30:00Z,28.9818,-94.9186,2.0,209.4845687,16.9445596,-99999.0,'11111222,11111222,99999999' 
TABS,ioos:station:wmo:42043:1,1996-11-03T07:00:00Z,28.9818,-94.9186,2.0,206.0919229,16.25676782,-99999.0,'11111222,11111222,99999999' 
TABS,ioos:station:wmo:42043:1,1996-11-03T07:30:00Z,28.9818,-94.9186,2.0,204.6427309,17.86729134,-99999.0,'11111222,11111222,99999999' 
TABS,ioos:station:wmo:42043:1,1996-11-03T08:00:00Z,28.9818,-94.9186,2.0,207.398985,18.12301575,-99999.0,'11111222,11111222,99999999' 
TABS,ioos:station:wmo:42043:1,1996-11-03T08:30:00Z,28.9818,-94.9186,2.0,211.4894398,16.25360575,-99999.0,'11111222,11111222,99999999' 
TABS,ioos:station:wmo:42043:1,1996-11-03T09:00:00Z,28.9818,-94.9186,2.0,216.761279,16.92603025,-99999.0,'11111222,11111222,99999999' 
TABS,ioos:station:wmo:42043:1,1996-11-03T09:30:00Z,28.9818,-94.9186,2.0,214.5048308,17.35277788,-99999.0,'11111222,11111222,99999999' 
TABS,ioos:station:wmo:42043:1,1996-11-03T10:00:00Z,28.9818,-94.9186,2.0,219.3925858,18.30974877,-99999.0,'11111222,11111222,99999999' 
TABS,ioos:station:wmo:42043:1,1996-11-03T10:30:00Z,28.9818,-94.9186,2.0,217.4429122,18.38892058,-99999.0,'11111222,11111222,99999999' 
TABS,ioos:station:wmo:42043:1,1996-11-03T11:00:00Z,28.9818,-94.9186,2.0,212.7753276,17.89968156,-99999.0,'11111222,11111222,99999999' 
TABS,ioos:station:wmo:42043:1,1996-11-03T11:30:00Z,28.9818,-94.9186,2.0,217.6407639,19.76379012,-99999.0,'11111222,11111222,99999999' 
TABS,ioos:station:wmo:42043:1,1996-11-03T12:00:00Z,28.9818,-94.9186,2.0,218.6595074,19.08131023,-99999.0,'11111222,11111222,99999999' 
TABS,ioos:station:wmo:42043:1,1996-11-03T12:30:00Z,28.9818,-94.9186,2.0,222.8386099,19.50173326,-99999.0,'11111222,11111222,99999999' 
TABS,ioos:station:wmo:42043:1,1996-11-03T13:00:00Z,28.9818,-94.9186,2.0,228.25088,18.57731143,-99999.0,'11111222,11111222,99999999' 
TABS,ioos:station:wmo:42043:1,1996-11-03T13:30:00Z,28.9818,-94.9186,2.0,230.7729139,16.73015242,-99999.0,'11111222,11111222,99999999' 
TABS,ioos:station:wmo:42043:1,1996-11-03T14:00:00Z,28.9818,-94.9186,2.0,237.3645271,18.22776454,-99999.0,'11111222,11111222,99999999' 
TABS,ioos:station:wmo:42043:1,1996-11-03T14:30:00Z,28.9818,-94.9186,2.0,234.8076848,20.42275691,-99999.0,'11111222,11111222,99999999' 
TABS,ioos:station:wmo:42043:1,1996-11-03T15:00:00Z,28.9818,-94.9186,2.0,237.1986277,21.45006527,-99999.0,'11111222,11111222,99999999' 
TABS,ioos:station:wmo:42043:1,1996-11-03T15:30:00Z,28.9818,-94.9186,2.0,233.9779589,22.29244267,-99999.0,'11111222,11111222,99999999' 
TABS,ioos:station:wmo:42043:1,1996-11-03T16:00:00Z,28.9818,-94.9186,2.0,230.478947,23.17880282,-99999.0,'11111222,11111222,99999999' 
TABS,ioos:station:wmo:42043:1,1996-11-03T16:30:00Z,28.9818,-94.9186,2.0,235.8224278,24.13865158,-99999.0,'11111222,11111222,99999999' 
TABS,ioos:station:wmo:42043:1,1996-11-03T17:00:00Z,28.9818,-94.9186,2.0,228.9206124,24.71466164,-99999.0,'11111222,11111222,99999999' 
TABS,ioos:station:wmo:42043:1,1996-11-03T17:30:00Z,28.9818,-94.9186,2.0,229.8067671,26.32626445,-99999.0,'11111222,11111222,99999999' 
TABS,ioos:station:wmo:42043:1,1996-11-03T18:00:00Z,28.9818,-94.9186,2.0,226.330526,27.40070802,-99999.0,'11111222,11111222,99999999' 
TABS,ioos:station:wmo:42043:1,1996-11-03T18:30:00Z,28.9818,-94.9186,2.0,225.6239807,28.55466687,-99999.0,'11111222,11111222,99999999' 
TABS,ioos:station:wmo:42043:1,1996-11-03T19:00:00Z,28.9818,-94.9186,2.0,227.0024006,30.14823544,-99999.0,'11111222,11111222,99999999' 
TABS,ioos:station:wmo:42043:1,1996-11-03T19:30:00Z,28.9818,-94.9186,2.0,234.8343273,28.9788233,-99999.0,'11111222,11111222,99999999' 
TABS,ioos:station:wmo:42043:1,1996-11-03T20:00:00Z,28.9818,-94.9186,2.0,237.5985518,29.46758388,-99999.0,'11111222,11111222,99999999' 
TABS,ioos:station:wmo:42043:1,1996-11-03T20:30:00Z,28.9818,-94.9186,2.0,238.0152282,28.97928398,-99999.0,'11111222,11111222,99999999' 
TABS,ioos:station:wmo:42043:1,1996-11-03T21:00:00Z,28.9818,-94.9186,2.0,236.8346885,27.23692347,-99999.0,'11111222,11111222,99999999' 
TABS,ioos:station:wmo:42043:1,1996-11-03T21:30:00Z,28.9818,-94.9186,2.0,235.9904707,30.3758539,-99999.0,'11111222,11111222,99999999' 
TABS,ioos:station:wmo:42043:1,1996-11-03T22:00:00Z,28.9818,-94.9186,2.0,239.358092,28.05761216,-99999.0,'11111222,11111222,99999999' 
TABS,ioos:station:wmo:42043:1,1996-11-03T22:30:00Z,28.9818,-94.9186,2.0,239.0249488,26.93042332,-99999.0,'11111222,11111222,99999999' 
TABS,ioos:station:wmo:42043:1,1996-11-03T23:00:00Z,28.9818,-94.9186,2.0,239.7370815,26.90671292,-99999.0,'11111222,11111222,99999999' 
TABS,ioos:station:wmo:42043:1,1996-11-03T23:30:00Z,28.9818,-94.9186,2.0,230.6693589,25.62362191,-99999.0,'11111222,11111222,99999999' 
TABS,ioos:station:wmo:42043:1,1996-11-04T00:00:00Z,28.9818,-94.9186,2.0,234.3085965,26.05351416,-99999.0,'11111222,11111222,99999999' 
TABS,ioos:station:wmo:42043:1,1996-11-04T00:30:00Z,28.9818,-94.9186,2.0,236.0147831,24.795427,-99999.0,'11111222,11111222,99999999' 
TABS,ioos:station:wmo:42043:1,1996-11-04T01:00:00Z,28.9818,-94.9186,2.0,238.5364437,23.41216137,-99999.0,'11111222,11111222,99999999' 
TABS,ioos:station:wmo:42043:1,1996-11-04T01:30:00Z,28.9818,-94.9186,2.0,240.8033504,24.74358301,-99999.0,'11111222,11111222,99999999' 
TABS,ioos:station:wmo:42043:1,1996-11-04T02:00:00Z,28.9818,-94.9186,2.0,244.0881242,23.52496546,-99999.0,'11111222,11111222,99999999' 
TABS,ioos:station:wmo:42043:1,1996-11-04T02:30:00Z,28.9818,-94.9186,2.0,243.2673955,24.52082584,-99999.0,'11111222,11111222,99999999' 
TABS,ioos:station:wmo:42043:1,1996-11-04T03:00:00Z,28.9818,-94.9186,2.0,246.0698147,23.14989633,-99999.0,'11111222,11111222,99999999' 
TABS,ioos:station:wmo:42043:1,1996-11-04T03:30:00Z,28.9818,-94.9186,2.0,244.7304063,23.73075009,-99999.0,'11111222,11111222,99999999' 
TABS,ioos:station:wmo:42043:1,1996-11-04T04:00:00Z,28.9818,-94.9186,2.0,238.1662646,25.4241637,-99999.0,'11111222,11111222,99999999' 
TABS,ioos:station:wmo:42043:1,1996-11-04T04:30:00Z,28.9818,-94.9186,2.0,237.918291,26.37807044,-99999.0,'11111222,11111222,99999999' 
TABS,ioos:station:wmo:42043:1,1996-11-04T05:00:00Z,28.9818,-94.9186,2.0,236.4008738,26.11254488,-99999.0,'11111222,11111222,99999999' 
TABS,ioos:station:wmo:42043:1,1996-11-04T05:30:00Z,28.9818,-94.9186,2.0,237.312719,25.6643644,-99999.0,'11111222,11111222,99999999' 
TABS,ioos:station:wmo:42043:1,1996-11-04T06:00:00Z,28.9818,-94.9186,2.0,235.9219053,25.00368373,-99999.0,'11111222,11111222,99999999' 
TABS,ioos:station:wmo:42043:1,1996-11-04T06:30:00Z,28.9818,-94.9186,2.0,238.1951857,26.29870909,-99999.0,'11111222,11111222,99999999' 
TABS,ioos:station:wmo:42043:1,1996-11-04T07:00:00Z,28.9818,-94.9186,2.0,236.8346885,27.23692347,-99999.0,'11111222,11111222,99999999' 
TABS,ioos:station:wmo:42043:1,1996-11-04T07:30:00Z,28.9818,-94.9186,2.0,238.9893859,27.46550746,-99999.0,'11111222,11111222,99999999' 
TABS,ioos:station:wmo:42043:1,1996-11-04T08:00:00Z,28.9818,-94.9186,2.0,256.6615646,23.88425632,-99999.0,'11111222,11111222,99999999' 
TABS,ioos:station:wmo:42043:1,1996-11-04T08:30:00Z,28.9818,-94.9186,2.0,263.3675929,25.80266072,-99999.0,'11111222,11111222,99999999' 
TABS,ioos:station:wmo:42043:1,1996-11-04T09:00:00Z,28.9818,-94.9186,2.0,269.6499355,24.58045768,-99999.0,'11111222,11111222,99999999' 
TABS,ioos:station:wmo:42043:1,1996-11-04T09:30:00Z,28.9818,-94.9186,2.0,277.9200562,22.71666569,-99999.0,'11111222,11111222,99999999' 
TABS,ioos:station:wmo:42043:1,1996-11-04T10:00:00Z,28.9818,-94.9186,2.0,268.4618103,22.35805224,-99999.0,'11111222,11111222,99999999' 
TABS,ioos:station:wmo:42043:1,1996-11-04T10:30:00Z,28.9818,-94.9186,2.0,270.8069699,21.31211158,-99999.0,'11111222,11111222,99999999' 
TABS,ioos:station:wmo:42043:1,1996-11-04T11:00:00Z,28.9818,-94.9186,2.0,273.5433395,19.25680399,-99999.0,'11111222,11111222,99999999' 
TABS,ioos:station:wmo:42043:1,1996-11-04T11:30:00Z,28.9818,-94.9186,2.0,292.2736226,16.91184792,-99999.0,'11111222,11111222,99999999' 
TABS,ioos:station:wmo:42043:1,1996-11-04T12:00:00Z,28.9818,-94.9186,2.0,282.1068714,17.06963679,-99999.0,'11111222,11111222,99999999' 
TABS,ioos:station:wmo:42043:1,1996-11-04T12:30:00Z,28.9818,-94.9186,2.0,292.3696556,17.23708792,-99999.0,'11111222,11111222,99999999' 
TABS,ioos:station:wmo:42043:1,1996-11-04T13:00:00Z,28.9818,-94.9186,2.0,305.3795364,12.60826713,-99999.0,'11111222,11111222,99999999' 
TABS,ioos:station:wmo:42043:1,1996-11-04T13:30:00Z,28.9818,-94.9186,2.0,309.8001653,12.79472548,-99999.0,'11111222,11111222,99999999' 
TABS,ioos:station:wmo:42043:1,1996-11-04T14:00:00Z,28.9818,-94.9186,2.0,310.9491435,13.41197226,-99999.0,'11111222,11111222,99999999' 
TABS,ioos:station:wmo:42043:1,1996-11-04T14:30:00Z,28.9818,-94.9186,2.0,323.0076093,12.13202786,-99999.0,'11111222,11111222,99999999' 
TABS,ioos:station:wmo:42043:1,1996-11-04T15:00:00Z,28.9818,-94.9186,2.0,338.612013,11.84581361,-99999.0,'11111222,11111222,99999999' 
TABS,ioos:station:wmo:42043:1,1996-11-04T15:30:00Z,28.9818,-94.9186,2.0,328.5361404,6.283947804,-99999.0,'11133222,11111222,99999999' 
TABS,ioos:station:wmo:42043:1,1996-11-04T16:00:00Z,28.9818,-94.9186,2.0,315.0003157,9.899494937,-99999.0,'11133222,11111222,99999999' 